Weather History for Munising, MI

Change the Weather History Date:

Wednesday, April 17, 2013

  Actual Average (KISQ) Record (KISQ)
Temperature  
Mean Temperature 36 °F -  
Max Temperature 44 °F 45 °F 68 °F (1952)
Min Temperature 28 °F 30 °F 19 °F (1983)
Degree Days  
Heating Degree Days 29    
Moisture  
Dew Point 27 °F    
Average Humidity 73    
Maximum Humidity 89    
Minimum Humidity 49    
Precipitation  
Precipitation 0.00 in - - ()
Sea Level Pressure  
Sea Level Pressure 30.32 in    
Wind  
Wind Speed 4 mph (NNE)    
Max Wind Speed 14 mph    
Max Gust Speed 45 mph    
Averages and records for this station are not official NWS values.
T = Trace of Precipitation, MM = Missing Value Source: NWS Daily Summary

Daily Weather History Graph

Daily Weather History Graph

Search for Another Location

Airport:

Trip Planner

Search our weather history database for the weather conditions in past years. The results will help you decide how hot, cold, wet, or windy it might be!

Date:

Astronomy

Apr. 17, 2013 Rise Set
Actual Time 6:55 AM EDT 8:37 PM EDT
Civil Twilight 6:23 AM EDT 9:09 PM EDT
Nautical Twilight 5:45 AM EDT 9:48 PM EDT
Astronomical Twilight 5:03 AM EDT 10:30 PM EDT
Moon 12:02 PM EDT (4/17) 2:22 AM EDT (4/17)
Length of Visible Light 14h 45m
Length of Day
13h 41m
Waxing Crescent, 42% of the Moon is Illuminated
Apr 17
Waxing Crescent
Apr 18
First Quarter
Apr 25
Full
May 2
Last Quarter
May 9
New

Hourly Weather History & Observations

Time (EDT) Temp. Windchill Dew Point Humidity Pressure Visibility Wind Dir Wind Speed Gust Speed Precip Events Conditions
12:56 AM 30.9 °F - 27.0 °F 85% 30.38 in - Calm Calm - N/A   Unknown
1:56 AM 33.1 °F 30.0 °F 28.0 °F 82% 30.40 in - NW 3.5 mph - N/A   Unknown
2:56 AM 30.9 °F - 27.0 °F 85% 30.40 in - Calm Calm - N/A   Unknown
3:56 AM 34.0 °F 29.8 °F 28.9 °F 82% 30.40 in - NNW 4.6 mph - N/A   Unknown
4:56 AM 28.9 °F - 26.1 °F 89% 30.41 in - Calm Calm - N/A   Unknown
5:56 AM 28.0 °F - 24.1 °F 85% 30.41 in - Calm Calm - N/A   Unknown
6:56 AM 30.9 °F 27.5 °F 27.0 °F 85% 30.43 in - NNW 3.5 mph - N/A   Unknown
7:56 AM 30.9 °F - 26.1 °F 82% 30.43 in - Calm Calm - N/A   Unknown
8:56 AM 35.1 °F - 28.9 °F 78% 30.42 in - Calm Calm - N/A   Unknown
9:56 AM 36.0 °F - 28.0 °F 73% 30.44 in - Calm Calm - N/A   Unknown
10:56 AM 36.0 °F 32.1 °F 28.9 °F 76% 30.43 in - NNE 4.6 mph - N/A   Unknown
11:56 AM 35.1 °F 26.4 °F 28.9 °F 78% 30.39 in - NNE 12.7 mph - N/A   Unknown
12:56 PM 35.1 °F 27.4 °F 28.9 °F 78% 30.37 in - NNE 10.4 mph - N/A   Unknown
1:56 PM 36.0 °F 28.5 °F 28.9 °F 76% 30.35 in - North 10.4 mph - N/A   Unknown
2:56 PM 36.0 °F 27.5 °F 30.0 °F 79% 30.32 in - North 12.7 mph - N/A   Unknown
3:56 PM 36.0 °F 28.5 °F 30.0 °F 79% 30.30 in - North 10.4 mph - N/A   Unknown
4:56 PM 37.0 °F 30.4 °F 30.0 °F 76% 30.30 in - North 9.2 mph - N/A   Unknown
5:56 PM 37.0 °F 31.0 °F 30.0 °F 76% 30.25 in - North 8.1 mph - N/A   Unknown
6:56 PM 44.1 °F 37.7 °F 26.1 °F 49% 30.21 in - SE 12.7 mph 19.6 mph N/A   Unknown
7:56 PM 43.0 °F 40.3 °F 26.1 °F 51% 30.20 in - Variable 4.6 mph - N/A   Unknown
8:56 PM 41.0 °F 35.2 °F 25.0 °F 53% 30.17 in - ESE 9.2 mph - N/A   Unknown
9:56 PM 41.0 °F 33.5 °F 24.1 °F 51% 30.16 in - SE 13.8 mph 44.9 mph N/A   Unknown
10:56 PM 39.9 °F 33.9 °F 24.1 °F 53% 30.13 in - SE 9.2 mph 16.1 mph N/A   Unknown
11:56 PM 39.9 °F 32.1 °F 25.0 °F 55% 30.09 in - SSE 13.8 mph 23.0 mph N/A   Unknown